Tracking 19794 objects as of 22-Jul-2019
HD Live streaming from Space Station
objects crossing your sky now

NAVSTAR 17 (USA 49)

Track NAVSTAR 17 (USA 49) now!
NAVSTAR 17 (USA 49) is classified as:


NORAD ID: 20361
Int'l Code: 1989-097A
Perigee: 21,183.5 km
Apogee: 21,306.4 km
Inclination: 54.6 °
Period: 761.2 minutes
Semi major axis: 27615 km
RCS: 2.5118 m2 (large)
Launch date: December 11, 1989
Source: United States (US)
Launch site: AIR FORCE EASTERN TEST RANGE (AFETR)
aabbcc
Your satellite tracking list
Your tracking list is empty




NASA's NSSDC Master Catalog

Two Line Element Set (TLE):
1 20361U 89097A   19202.87011944 -.00000040  00000-0  00000+0 0  9997
2 20361  54.5635  99.5914 0022239 282.9742 310.9545  1.89174513201639
Source of the keplerian elements: AFSPC